RYR93QM LIPZ-LOWW

Flight info

Callsign RYR93QM
Flight time 1h 13m
Altitude 31000
Route ROSKA M859 MONFA DCT BARPI DCT LAPNA LAPNA2W
Aircraft B38M/M-SDE1FGHILORVWXY/HB1

Departure

Time 2026-05-06 19:21
Airport Venice Marco Polo Airport (LIPZ)

Arrival

Time 2026-05-06 20:35
Airport Vienna International Airport (LOWW)
Time Latitude Longitude Altitude Speed Heading
2026-05-06 18:44 45.50492 12.34228 18 ft 0 kts 267°
2026-05-06 19:07 45.50493 12.34249 21 ft 4 kts 267°
2026-05-06 19:07 45.50493 12.34279 18 ft 4 kts 267°
2026-05-06 19:07 45.50497 12.34317 18 ft 4 kts 252°
2026-05-06 19:07 45.50508 12.34341 21 ft 4 kts 186°
2026-05-06 19:08 45.50533 12.34340 19 ft 3 kts 177°
2026-05-06 19:08 45.50536 12.34340 22 ft 1 kts 177°
2026-05-06 19:10 45.50530 12.34340 20 ft 2 kts 177°
2026-05-06 19:11 45.50502 12.34342 18 ft 6 kts 177°
2026-05-06 19:11 45.50453 12.34345 20 ft 8 kts 177°
2026-05-06 19:11 45.50388 12.34349 18 ft 11 kts 177°
2026-05-06 19:11 45.50304 12.34355 19 ft 13 kts 177°
2026-05-06 19:12 45.50206 12.34361 19 ft 15 kts 177°
2026-05-06 19:12 45.50099 12.34306 18 ft 18 kts 220°
2026-05-06 19:12 45.49998 12.34176 16 ft 21 kts 222°
2026-05-06 19:12 45.49883 12.34027 17 ft 23 kts 222°
2026-05-06 19:13 45.49761 12.33870 17 ft 22 kts 221°
2026-05-06 19:13 45.49648 12.33726 19 ft 22 kts 222°
2026-05-06 19:13 45.49588 12.33647 19 ft 0 kts 222°
2026-05-06 19:15 45.49582 12.33640 19 ft 2 kts 222°
2026-05-06 19:16 45.49565 12.33619 20 ft 4 kts 217°
2026-05-06 19:16 45.49533 12.33606 19 ft 6 kts 182°
2026-05-06 19:16 45.49511 12.33613 19 ft 0 kts 157°
2026-05-06 19:19 45.49509 12.33614 19 ft 1 kts 157°
2026-05-06 19:19 45.49491 12.33630 20 ft 5 kts 142°
2026-05-06 19:19 45.49455 12.33684 18 ft 11 kts 132°
2026-05-06 19:20 45.49428 12.33793 19 ft 14 kts 50°
2026-05-06 19:20 45.49520 12.33913 17 ft 35 kts 42°
2026-05-06 19:20 45.49892 12.34389 15 ft 106 kts 41°
2026-05-06 19:20 45.50593 12.35272 38 ft 157 kts 41°
2026-05-06 19:21 45.51429 12.36420 482 ft 173 kts 46°
2026-05-06 19:21 45.52275 12.37709 1113 ft 182 kts 47°
2026-05-06 19:21 45.53158 12.39024 1794 ft 188 kts 56°
2026-05-06 19:21 45.53546 12.40896 2067 ft 211 kts 96°
2026-05-06 19:22 45.53350 12.42885 2947 ft 204 kts 100°
2026-05-06 19:22 45.53165 12.44946 3545 ft 216 kts 100°
2026-05-06 19:22 45.52967 12.47071 4325 ft 217 kts 100°
2026-05-06 19:22 45.52759 12.49228 5035 ft 221 kts 101°
2026-05-06 19:23 45.52543 12.51421 5769 ft 224 kts 101°
2026-05-06 19:23 45.52269 12.53640 6383 ft 232 kts 112°
2026-05-06 19:23 45.51403 12.55602 6713 ft 246 kts 136°
2026-05-06 19:23 45.50216 12.57482 7227 ft 257 kts 136°
2026-05-06 19:24 45.48981 12.59411 7806 ft 270 kts 137°
2026-05-06 19:24 45.47670 12.61438 8329 ft 282 kts 137°
2026-05-06 19:24 45.46336 12.63489 9161 ft 283 kts 137°
2026-05-06 19:24 45.44977 12.65567 9882 ft 288 kts 138°
2026-05-06 19:25 45.43588 12.67684 10379 ft 301 kts 138°
2026-05-06 19:25 45.42116 12.69926 10772 ft 317 kts 138°
2026-05-06 19:25 45.41105 12.71465 11143 ft 322 kts 138°
2026-05-06 19:25 45.39581 12.73782 11942 ft 324 kts 138°
2026-05-06 19:26 45.38027 12.76144 12719 ft 328 kts 139°
2026-05-06 19:26 45.36462 12.78519 13526 ft 331 kts 139°
2026-05-06 19:26 45.34876 12.80927 14267 ft 335 kts 138°
2026-05-06 19:26 45.33530 12.83698 15006 ft 348 kts 118°
2026-05-06 19:27 45.32965 12.87094 15753 ft 362 kts 95°
2026-05-06 19:27 45.33323 12.90609 16527 ft 370 kts 72°
2026-05-06 19:27 45.34551 12.93866 17211 ft 377 kts 57°
2026-05-06 19:27 45.35939 12.97065 17877 ft 382 kts 60°
2026-05-06 19:28 45.37308 13.00326 18507 ft 386 kts 60°
2026-05-06 19:28 45.38687 13.03636 19090 ft 390 kts 60°
2026-05-06 19:28 45.40079 13.06988 19677 ft 394 kts 60°
2026-05-06 19:28 45.41470 13.10346 20260 ft 397 kts 60°
2026-05-06 19:29 45.42862 13.13710 20822 ft 401 kts 60°
2026-05-06 19:29 45.44302 13.17194 21402 ft 405 kts 60°
2026-05-06 19:29 45.45717 13.20623 21952 ft 408 kts 60°
2026-05-06 19:29 45.47162 13.24127 22519 ft 412 kts 61°
2026-05-06 19:30 45.48617 13.27669 23059 ft 415 kts 61°
2026-05-06 19:30 45.50071 13.31253 23604 ft 419 kts 61°
2026-05-06 19:30 45.51539 13.34871 24038 ft 423 kts 61°
2026-05-06 19:30 45.53017 13.38517 24493 ft 426 kts 61°
2026-05-06 19:31 45.54484 13.42141 24927 ft 430 kts 61°
2026-05-06 19:31 45.55988 13.45861 25366 ft 434 kts 61°
2026-05-06 19:31 45.59126 13.53317 26213 ft 442 kts 53°
2026-05-06 19:32 45.60950 13.56879 26632 ft 445 kts 54°
2026-05-06 19:32 45.62759 13.60502 27037 ft 449 kts 55°
2026-05-06 19:32 45.64570 13.64171 27439 ft 453 kts 55°
2026-05-06 19:32 45.66361 13.67825 27824 ft 456 kts 55°
2026-05-06 19:33 45.68178 13.71542 28219 ft 460 kts 56°
2026-05-06 19:33 45.70017 13.75310 28626 ft 463 kts 56°
2026-05-06 19:33 45.71867 13.79107 29080 ft 465 kts 56°
2026-05-06 19:33 45.73718 13.82909 29597 ft 465 kts 56°
2026-05-06 19:34 45.75574 13.86727 29905 ft 468 kts 56°
2026-05-06 19:34 45.77425 13.90543 29948 ft 464 kts 56°
2026-05-06 19:34 45.81092 13.98114 29929 ft 461 kts 56°
2026-05-06 19:35 45.84726 14.05637 29922 ft 461 kts 56°
2026-05-06 19:35 45.88377 14.13216 29931 ft 461 kts 56°
2026-05-06 19:36 45.92019 14.20795 29937 ft 461 kts 56°
2026-05-06 19:36 45.95660 14.28392 29923 ft 461 kts 56°
2026-05-06 19:37 45.99264 14.35934 29937 ft 461 kts 56°
2026-05-06 19:37 46.02896 14.43556 29938 ft 458 kts 56°
2026-05-06 19:38 46.06495 14.51125 29936 ft 457 kts 56°
2026-05-06 19:38 46.10070 14.58668 29935 ft 457 kts 56°
2026-05-06 19:39 46.13629 14.66196 29930 ft 457 kts 56°
2026-05-06 19:39 46.17203 14.73776 29932 ft 457 kts 56°
2026-05-06 19:40 46.20778 14.81379 29918 ft 456 kts 56°
2026-05-06 19:40 46.24331 14.88955 29921 ft 455 kts 56°
2026-05-06 19:41 46.27877 14.96535 29903 ft 454 kts 56°
2026-05-06 19:41 46.31402 15.04094 29900 ft 451 kts 56°
2026-05-06 19:42 46.34888 15.11589 29903 ft 451 kts 56°
2026-05-06 19:42 46.38376 15.19109 29865 ft 448 kts 56°
2026-05-06 19:43 46.40118 15.22872 29205 ft 450 kts 56°
2026-05-06 19:43 46.41848 15.26612 28805 ft 445 kts 56°
2026-05-06 19:43 46.43564 15.30327 28398 ft 442 kts 56°
2026-05-06 19:43 46.45271 15.34027 27984 ft 439 kts 56°
2026-05-06 19:44 46.46963 15.37698 27569 ft 436 kts 56°
2026-05-06 19:44 46.48643 15.41347 27175 ft 432 kts 56°
2026-05-06 19:44 46.50307 15.44967 26785 ft 429 kts 56°
2026-05-06 19:44 46.51949 15.48494 26379 ft 426 kts 53°
2026-05-06 19:45 46.54016 15.51517 25919 ft 421 kts 34°
2026-05-06 19:45 46.56540 15.53570 25565 ft 414 kts 22°
2026-05-06 19:45 46.59144 15.55301 25198 ft 410 kts 22°
2026-05-06 19:45 46.61755 15.56971 24871 ft 409 kts 21°
2026-05-06 19:46 46.64369 15.58608 24564 ft 407 kts 21°
2026-05-06 19:46 46.66972 15.60219 24274 ft 406 kts 21°
2026-05-06 19:46 46.69570 15.61814 23987 ft 405 kts 21°
2026-05-06 19:46 46.72164 15.63407 23719 ft 403 kts 21°
2026-05-06 19:47 46.74733 15.64981 23441 ft 402 kts 21°
2026-05-06 19:47 46.77307 15.66561 23110 ft 400 kts 21°
2026-05-06 19:47 46.79889 15.68148 22777 ft 405 kts 21°
2026-05-06 19:47 46.82500 15.69754 22455 ft 408 kts 21°
2026-05-06 19:48 46.85080 15.71341 22147 ft 407 kts 21°
2026-05-06 19:48 46.87689 15.72950 21832 ft 406 kts 21°
2026-05-06 19:48 46.90287 15.74552 21525 ft 404 kts 21°
2026-05-06 19:48 46.92873 15.76149 21219 ft 401 kts 21°
2026-05-06 19:49 46.95427 15.77728 20917 ft 396 kts 21°
2026-05-06 19:49 46.97948 15.79288 20615 ft 391 kts 21°
2026-05-06 19:49 47.00433 15.80828 20313 ft 386 kts 21°
2026-05-06 19:49 47.02902 15.82359 20020 ft 383 kts 21°
2026-05-06 19:50 47.05345 15.83876 19723 ft 379 kts 21°
2026-05-06 19:50 47.07770 15.85382 19431 ft 378 kts 21°
2026-05-06 19:50 47.10156 15.86866 19151 ft 377 kts 21°
2026-05-06 19:50 47.12566 15.88367 18860 ft 374 kts 21°
2026-05-06 19:51 47.14958 15.89857 18581 ft 372 kts 21°
2026-05-06 19:51 47.17336 15.91341 18294 ft 371 kts 21°
2026-05-06 19:51 47.19711 15.92824 18007 ft 369 kts 21°
2026-05-06 19:51 47.22058 15.94292 17694 ft 367 kts 21°
2026-05-06 19:52 47.24408 15.95761 17396 ft 366 kts 21°
2026-05-06 19:52 47.26727 15.97214 17072 ft 365 kts 21°
2026-05-06 19:52 47.29059 15.98675 16757 ft 363 kts 21°
2026-05-06 19:52 47.31410 16.00150 16443 ft 362 kts 21°
2026-05-06 19:53 47.33695 16.01585 16151 ft 360 kts 22°
2026-05-06 19:53 47.35987 16.03025 15876 ft 356 kts 22°
2026-05-06 19:53 47.38306 16.04256 15843 ft 356 kts 16°
2026-05-06 19:53 47.40666 16.05389 15837 ft 357 kts 17°
2026-05-06 19:54 47.43015 16.06538 15839 ft 350 kts 17°
2026-05-06 19:54 47.45288 16.07663 15827 ft 337 kts 17°
2026-05-06 19:54 47.47469 16.08747 15831 ft 323 kts 17°
2026-05-06 19:54 47.49559 16.09790 15808 ft 310 kts 17°
2026-05-06 19:55 47.51561 16.10788 15812 ft 298 kts 17°
2026-05-06 19:55 47.53499 16.11758 15822 ft 298 kts 17°
2026-05-06 19:55 47.55457 16.12738 15815 ft 296 kts 17°
2026-05-06 19:55 47.57414 16.13717 15803 ft 297 kts 17°
2026-05-06 19:56 47.59377 16.14702 15806 ft 297 kts 16°
2026-05-06 19:56 47.61337 16.15682 15830 ft 296 kts 17°
2026-05-06 19:56 47.63287 16.16667 15776 ft 297 kts 17°
2026-05-06 19:56 47.65247 16.17659 15692 ft 299 kts 17°
2026-05-06 19:57 47.67194 16.18631 15406 ft 298 kts 17°
2026-05-06 19:57 47.69164 16.19620 15111 ft 298 kts 17°
2026-05-06 19:57 47.71130 16.20611 14838 ft 298 kts 17°
2026-05-06 19:57 47.73099 16.21602 14575 ft 298 kts 17°
2026-05-06 19:58 47.75065 16.22593 14314 ft 298 kts 17°
2026-05-06 19:58 47.77020 16.23646 14033 ft 300 kts 25°
2026-05-06 19:58 47.78697 16.25445 13753 ft 297 kts 50°
2026-05-06 19:58 47.79751 16.28022 13480 ft 288 kts 76°
2026-05-06 19:59 47.79976 16.30869 13158 ft 276 kts 103°
2026-05-06 19:59 47.79423 16.33488 12919 ft 259 kts 127°
2026-05-06 19:59 47.78303 16.35481 12745 ft 246 kts 148°
2026-05-06 19:59 47.76841 16.36698 12533 ft 238 kts 167°
2026-05-06 20:00 47.75240 16.37116 12295 ft 231 kts 183°
2026-05-06 20:00 47.73651 16.36913 12083 ft 228 kts 194°
2026-05-06 20:00 47.72127 16.36330 11896 ft 225 kts 199°
2026-05-06 20:00 47.70675 16.35529 11813 ft 222 kts 207°
2026-05-06 20:01 47.69275 16.34525 11793 ft 224 kts 207°
2026-05-06 20:01 47.67880 16.33489 11789 ft 223 kts 209°
2026-05-06 20:01 47.66536 16.32402 11821 ft 223 kts 210°
2026-05-06 20:01 47.65183 16.31285 11737 ft 223 kts 208°
2026-05-06 20:02 47.63814 16.30219 11536 ft 222 kts 214°
2026-05-06 20:02 47.62526 16.28959 11291 ft 221 kts 214°
2026-05-06 20:02 47.61391 16.27438 11078 ft 221 kts 232°
2026-05-06 20:02 47.60675 16.25415 10856 ft 224 kts 249°
2026-05-06 20:03 47.60416 16.23128 10660 ft 228 kts 265°
2026-05-06 20:03 47.60652 16.20785 10448 ft 234 kts 282°
2026-05-06 20:03 47.61381 16.18587 10226 ft 243 kts 298°
2026-05-06 20:03 47.62559 16.16754 10054 ft 250 kts 316°
2026-05-06 20:04 47.64123 16.15549 10000 ft 258 kts 336°
2026-05-06 20:04 47.65903 16.15148 10027 ft 268 kts 356°
2026-05-06 20:04 47.67784 16.15561 10026 ft 279 kts 11°
2026-05-06 20:04 47.69630 16.16583 9994 ft 287 kts 25°
2026-05-06 20:05 47.71375 16.18041 10025 ft 289 kts 30°
2026-05-06 20:05 47.73069 16.19658 10013 ft 289 kts 33°
2026-05-06 20:05 47.74715 16.21377 10000 ft 289 kts 35°
2026-05-06 20:05 47.76328 16.23167 9994 ft 289 kts 37°
2026-05-06 20:06 47.77752 16.25260 9966 ft 288 kts 58°
2026-05-06 20:06 47.78661 16.27891 9983 ft 293 kts 66°
2026-05-06 20:06 47.79592 16.30575 9998 ft 289 kts 63°
2026-05-06 20:06 47.80568 16.33188 10000 ft 288 kts 62°
2026-05-06 20:07 47.81555 16.35782 9990 ft 288 kts 62°
2026-05-06 20:07 47.82552 16.38373 10010 ft 288 kts 62°
2026-05-06 20:07 47.83553 16.40958 10001 ft 288 kts 62°
2026-05-06 20:07 47.84557 16.43540 10016 ft 288 kts 62°
2026-05-06 20:08 47.85560 16.46115 10012 ft 288 kts 62°
2026-05-06 20:08 47.86565 16.48701 10012 ft 288 kts 62°
2026-05-06 20:08 47.87568 16.51280 10017 ft 288 kts 62°
2026-05-06 20:08 47.88560 16.53831 9986 ft 287 kts 61°
2026-05-06 20:09 47.89556 16.56392 10009 ft 285 kts 61°
2026-05-06 20:09 47.90551 16.58956 9983 ft 285 kts 61°
2026-05-06 20:09 47.91544 16.61522 9776 ft 286 kts 61°
2026-05-06 20:09 47.92546 16.64108 9487 ft 287 kts 61°
2026-05-06 20:10 47.93542 16.66687 9169 ft 286 kts 61°
2026-05-06 20:10 47.94537 16.69257 8868 ft 286 kts 61°
2026-05-06 20:10 47.95527 16.71820 8564 ft 284 kts 61°
2026-05-06 20:10 47.96495 16.74335 8270 ft 282 kts 62°
2026-05-06 20:11 47.97474 16.76875 7960 ft 281 kts 62°
2026-05-06 20:11 47.98547 16.79283 7645 ft 281 kts 45°
2026-05-06 20:11 48.00155 16.80850 7302 ft 274 kts 14°
2026-05-06 20:11 48.02002 16.81159 6982 ft 264 kts 347°
2026-05-06 20:12 48.03720 16.80384 6731 ft 254 kts 329°
2026-05-06 20:12 48.04790 16.79664 6570 ft 255 kts 329°
2026-05-06 20:12 48.06909 16.78161 6231 ft 252 kts 328°
2026-05-06 20:12 48.08485 16.77001 6036 ft 252 kts 327°
2026-05-06 20:13 48.10056 16.75818 6009 ft 253 kts 327°
2026-05-06 20:13 48.11627 16.74625 5998 ft 253 kts 327°
2026-05-06 20:13 48.12669 16.73828 5993 ft 253 kts 326°
2026-05-06 20:13 48.14237 16.72624 5994 ft 253 kts 326°
2026-05-06 20:14 48.16318 16.71022 5988 ft 253 kts 326°
2026-05-06 20:14 48.17379 16.70202 5994 ft 254 kts 326°
2026-05-06 20:14 48.18951 16.68989 5995 ft 254 kts 326°
2026-05-06 20:14 48.20529 16.67768 5993 ft 254 kts 326°
2026-05-06 20:15 48.22080 16.66584 5991 ft 256 kts 330°
2026-05-06 20:15 48.23788 16.65751 5993 ft 259 kts 339°
2026-05-06 20:15 48.25531 16.65037 6002 ft 261 kts 339°
2026-05-06 20:15 48.27282 16.64313 5996 ft 260 kts 338°
2026-05-06 20:16 48.29021 16.63586 5991 ft 258 kts 338°
2026-05-06 20:16 48.30758 16.62858 5994 ft 259 kts 338°
2026-05-06 20:16 48.32490 16.62129 5995 ft 258 kts 339°
2026-05-06 20:16 48.34222 16.61400 5984 ft 257 kts 339°
2026-05-06 20:17 48.35953 16.60669 5990 ft 259 kts 339°
2026-05-06 20:17 48.37714 16.60052 5963 ft 264 kts 353°
2026-05-06 20:17 48.39505 16.60464 5977 ft 256 kts 18°
2026-05-06 20:17 48.41140 16.61418 6028 ft 249 kts 20°
2026-05-06 20:18 48.42737 16.62408 6047 ft 248 kts 20°
2026-05-06 20:18 48.44332 16.63399 5997 ft 247 kts 20°
2026-05-06 20:18 48.45930 16.64378 5961 ft 247 kts 20°
2026-05-06 20:18 48.47504 16.65340 5965 ft 248 kts 20°
2026-05-06 20:19 48.49107 16.66330 5991 ft 248 kts 20°
2026-05-06 20:19 48.50703 16.67321 5976 ft 248 kts 20°
2026-05-06 20:19 48.52295 16.68309 5969 ft 246 kts 20°
2026-05-06 20:19 48.53882 16.69282 5967 ft 246 kts 20°
2026-05-06 20:20 48.55479 16.70238 5989 ft 247 kts 20°
2026-05-06 20:20 48.57074 16.71197 5991 ft 246 kts 20°
2026-05-06 20:20 48.58658 16.72167 5985 ft 246 kts 21°
2026-05-06 20:20 48.60246 16.73146 6011 ft 247 kts 20°
2026-05-06 20:21 48.61832 16.74031 5992 ft 245 kts
2026-05-06 20:21 48.63478 16.73955 5899 ft 232 kts 336°
2026-05-06 20:21 48.64771 16.72655 5916 ft 219 kts 303°
2026-05-06 20:21 48.65352 16.70615 5827 ft 210 kts 271°
2026-05-06 20:22 48.65237 16.68460 5697 ft 204 kts 256°
2026-05-06 20:22 48.64698 16.66526 5466 ft 200 kts 230°
2026-05-06 20:22 48.63681 16.65088 5243 ft 201 kts 221°
2026-05-06 20:22 48.62599 16.63743 5042 ft 202 kts 221°
2026-05-06 20:23 48.61515 16.62410 4948 ft 200 kts 220°
2026-05-06 20:23 48.60437 16.61089 4954 ft 200 kts 220°
2026-05-06 20:23 48.59346 16.59746 4961 ft 204 kts 220°
2026-05-06 20:23 48.58260 16.58418 4970 ft 202 kts 220°
2026-05-06 20:24 48.57169 16.57085 4984 ft 202 kts 220°
2026-05-06 20:24 48.56080 16.55757 4963 ft 201 kts 220°
2026-05-06 20:24 48.54993 16.54416 4964 ft 201 kts 220°
2026-05-06 20:24 48.53896 16.53109 4955 ft 202 kts 220°
2026-05-06 20:25 48.52775 16.51829 4968 ft 197 kts 220°
2026-05-06 20:25 48.51722 16.50624 4976 ft 185 kts 220°
2026-05-06 20:25 48.50705 16.49455 4958 ft 183 kts 220°
2026-05-06 20:25 48.49692 16.48301 4963 ft 182 kts 220°
2026-05-06 20:26 48.48545 16.47473 4945 ft 187 kts 195°
2026-05-06 20:26 48.47247 16.47216 4995 ft 190 kts 190°
2026-05-06 20:26 48.45943 16.47025 4990 ft 190 kts 190°
2026-05-06 20:26 48.44621 16.46828 4984 ft 191 kts 190°
2026-05-06 20:27 48.43297 16.46615 4970 ft 191 kts 189°
2026-05-06 20:27 48.41975 16.46396 4980 ft 190 kts 191°
2026-05-06 20:27 48.40650 16.46247 4977 ft 191 kts 185°
2026-05-06 20:27 48.39313 16.46408 4994 ft 194 kts 175°
2026-05-06 20:28 48.38005 16.46815 4995 ft 195 kts 171°
2026-05-06 20:28 48.36672 16.47322 4989 ft 195 kts 169°
2026-05-06 20:28 48.35377 16.47859 4990 ft 196 kts 169°
2026-05-06 20:28 48.34066 16.48415 4978 ft 195 kts 169°
2026-05-06 20:29 48.32756 16.48974 4983 ft 195 kts 169°
2026-05-06 20:29 48.31444 16.49533 4812 ft 199 kts 170°
2026-05-06 20:29 48.30080 16.50118 4353 ft 205 kts 170°
2026-05-06 20:29 48.28732 16.50698 3984 ft 195 kts 169°
2026-05-06 20:30 48.27461 16.51259 3683 ft 185 kts 171°
2026-05-06 20:30 48.25109 16.52270 3027 ft 167 kts 172°
2026-05-06 20:30 48.24012 16.52744 2872 ft 165 kts 171°
2026-05-06 20:31 48.22916 16.53206 2715 ft 163 kts 172°
2026-05-06 20:31 48.21829 16.53668 2518 ft 161 kts 171°
2026-05-06 20:31 48.20761 16.54148 2331 ft 158 kts 172°
2026-05-06 20:31 48.19740 16.54601 2077 ft 144 kts 171°
2026-05-06 20:32 48.18855 16.54973 1889 ft 121 kts 171°
2026-05-06 20:32 48.18074 16.55274 1709 ft 112 kts 174°
2026-05-06 20:32 48.17328 16.55527 1634 ft 108 kts 167°
2026-05-06 20:32 48.16609 16.55912 1496 ft 110 kts 165°
2026-05-06 20:33 48.15872 16.56214 1278 ft 110 kts 171°
2026-05-06 20:33 48.15100 16.56485 1232 ft 117 kts 167°
2026-05-06 20:33 48.14330 16.56841 1093 ft 115 kts 166°
2026-05-06 20:33 48.13559 16.57174 947 ft 118 kts 169°
2026-05-06 20:34 48.12777 16.57492 776 ft 116 kts 164°
2026-05-06 20:34 48.11997 16.57814 639 ft 117 kts 167°
2026-05-06 20:34 48.11284 16.58102 618 ft 94 kts 165°
2026-05-06 20:34 48.10765 16.58323 620 ft 66 kts 164°
2026-05-06 20:35 48.10408 16.58461 618 ft 43 kts 173°
2026-05-06 20:35 48.10186 16.58404 617 ft 7 kts 187°
2026-05-06 20:35 48.10122 16.58371 619 ft 13 kts 221°
2026-05-06 20:35 48.10114 16.58329 619 ft 3 kts 319°
2026-05-06 20:36 48.10152 16.58309 616 ft 9 kts 342°
2026-05-06 20:36 48.10230 16.58275 619 ft 14 kts 345°
2026-05-06 20:36 48.10346 16.58229 616 ft 20 kts 345°
2026-05-06 20:36 48.10498 16.58166 622 ft 25 kts 344°
2026-05-06 20:37 48.10669 16.58092 627 ft 28 kts 344°
2026-05-06 20:37 48.10842 16.58018 624 ft 26 kts 344°
2026-05-06 20:37 48.10997 16.57874 629 ft 28 kts 315°
2026-05-06 20:37 48.11094 16.57632 617 ft 26 kts 295°
2026-05-06 20:38 48.11168 16.57399 620 ft 24 kts 296°
2026-05-06 20:38 48.11247 16.57156 619 ft 26 kts 296°
2026-05-06 20:38 48.11321 16.56930 622 ft 25 kts 296°
2026-05-06 20:38 48.11397 16.56698 620 ft 24 kts 296°
2026-05-06 20:39 48.11465 16.56489 618 ft 23 kts 296°
2026-05-06 20:39 48.11538 16.56263 621 ft 25 kts 296°
2026-05-06 20:39 48.11612 16.56037 621 ft 22 kts 296°
2026-05-06 20:39 48.11681 16.55828 623 ft 24 kts 296°
2026-05-06 20:40 48.11739 16.55652 615 ft 15 kts 296°
2026-05-06 20:40 48.11790 16.55496 625 ft 18 kts 296°
2026-05-06 20:40 48.11839 16.55347 620 ft 16 kts 296°
2026-05-06 20:40 48.11887 16.55208 615 ft 14 kts 314°
2026-05-06 20:41 48.11945 16.55259 620 ft 13 kts 77°
2026-05-06 20:41 48.12009 16.55346 617 ft 13 kts 25°
2026-05-06 20:41 48.12085 16.55400 621 ft 8 kts 26°
2026-05-06 20:41 48.12106 16.55411 613 ft 0 kts 359°
2026-05-06 20:42 48.12111 16.55408 613 ft 1 kts 335°
2026-05-06 20:42 48.12117 16.55400 623 ft 1 kts 319°
2026-05-06 20:42 48.12122 16.55390 624 ft 1 kts 297°
2026-05-06 20:42 48.12126 16.55377 617 ft 1 kts 295°
2026-05-06 20:43 48.12129 16.55367 618 ft 2 kts 295°
2026-05-06 20:43 48.12133 16.55352 615 ft 0 kts 295°